[[{"header":{"parameterUnit":"m.s-1","parameterCategory":2,"la1":30.2992,"la2":30.254,"lo1":-89.0895,"lo2":-89.0443,"dy":0.0025,"dx":0.0025,"nx":19,"ny":19,"refTime":"2026-04-20T21:00:00:Z","depth":"0","parameterNumber":2,"parameterNumberName":"U-component_of_CURRENTS"},"data":[0,0,0,-0.2815,-0.2818,-0.2909,-0.291,-0.2874,-0.2874,0,0,0,0,0,0,0,0,0,0,0,-0.2774,-0.2775,-0.2815,-0.2818,-0.2909,-0.291,-0.2875,-0.2874,0,0,0,0,0,0,0,0,0,0,0,-0.2774,-0.2775,-0.2776,-0.2818,-0.2909,-0.291,-0.2875,-0.284,0,0,0,0,0,0,0,0,0,0,-0.2769,-0.2738,-0.2775,-0.2776,-0.2819,-0.2909,-0.291,-0.284,-0.2842,-0.2794,0,-0.2818,0,-0.2852,-0.2869,-0.2869,0,0,0,-0.2804,-0.2736,-0.2785,-0.2776,-0.282,-0.2909,-0.2864,-0.2842,-0.2844,-0.2796,-0.2818,-0.2818,-0.2852,-0.2869,-0.2869,-0.2823,-0.2823,0,0,-0.2799,-0.2762,-0.2784,-0.2787,-0.2853,-0.2861,-0.2867,-0.2845,-0.2833,-0.2818,-0.2818,-0.2851,-0.2868,-0.2868,-0.2823,-0.2823,0,0,0,-0.2794,-0.2758,-0.281,-0.2787,-0.282,-0.2864,-0.2871,-0.2834,-0.2859,-0.2818,-0.2851,-0.2868,-0.2867,-0.2823,-0.2823,-0.2857,0,0,0,-0.279,-0.2757,-0.2807,-0.2782,-0.2822,-0.2844,-0.2859,-0.286,-0.286,-0.2851,-0.2868,-0.2867,-0.2823,-0.2823,-0.2856,-0.2866,0,0,0,-0.2768,-0.2754,-0.2774,-0.2781,-0.2832,-0.2847,-0.287,-0.2861,-0.2878,-0.2869,-0.2866,-0.2823,-0.2823,-0.2855,-0.2865,-0.2867,0,0,0,-0.2714,-0.2738,-0.2773,-0.2799,-0.2831,-0.2877,-0.2871,-0.2881,-0.2874,-0.2868,-0.2823,-0.2823,-0.2855,-0.2864,-0.2866,-0.2697,-0.2687,0,0,-0.2716,-0.2736,-0.2754,-0.2789,-0.2833,-0.2863,-0.2888,-0.2875,-0.2856,-0.2816,-0.2817,-0.2856,-0.2865,-0.2867,-0.2698,-0.2688,0,0,0,-0.2737,-0.2744,-0.2764,-0.2797,-0.2844,-0.2881,-0.2885,-0.2888,-0.2876,-0.2857,-0.2847,-0.2851,-0.2851,-0.2747,-0.2739,-0.2681,-0.2823,-0.2823,-0.2823,-0.2659,-0.2711,-0.2732,-0.2794,-0.2827,-0.2878,-0.29,-0.2899,-0.2877,-0.288,-0.2872,-0.2887,-0.2776,-0.2768,-0.271,-0.2866,-0.2866,-0.2866,-0.2866,-0.2632,-0.2632,-0.2707,-0.2746,-0.2809,-0.2832,-0.2899,-0.2908,-0.2915,-0.29,-0.2899,-0.2779,-0.2761,-0.2702,-0.2868,-0.2868,-0.2868,-0.2867,-0.2867,-0.2539,-0.2551,-0.2596,-0.2663,-0.2724,-0.2807,-0.2853,-0.2906,-0.2927,-0.2939,-0.2803,-0.28,-0.2753,-0.2931,-0.2931,-0.2931,-0.2931,-0.2931,-0.2931,-0.2414,-0.2469,-0.2478,-0.258,-0.2614,-0.2699,-0.282,-0.2845,-0.2836,-0.2816,-0.2815,-0.2731,-0.2906,-0.2909,-0.2932,-0.2932,-0.2932,-0.2932,-0.2932,-0.226,-0.2313,-0.2321,-0.2354,-0.2463,-0.2479,-0.2657,-0.2664,-0.2708,-0.266,-0.2582,-0.2742,-0.2711,-0.2714,-0.2712,-0.2683,-0.2683,-0.2683,-0.2683,-0.2131,-0.2174,-0.2153,-0.2182,-0.2254,-0.2361,-0.2296,-0.2347,-0.2389,-0.2358,-0.2452,-0.2393,-0.2405,-0.2356,-0.2367,-0.2357,-0.224,-0.2239,-0.2239,-0.2002,-0.2043,-0.1969,-0.2056,-0.214,-0.2184,-0.2044,-0.1982,-0.2086,-0.2224,-0.2412,-0.2431,-0.2353,-0.2377,-0.2306,-0.2326,-0.2313,0,0]},{"header":{"parameterUnit":"m.s-1","parameterCategory":2,"la1":30.2992,"la2":30.254,"lo1":-89.0895,"lo2":-89.0443,"dy":0.0025,"dx":0.0025,"nx":19,"ny":19,"refTime":"2026-04-20T21:00:00:Z","depth":"0","parameterNumber":3,"parameterNumberName":"V-component_of_CURRENTS"},"data":[0,0,0,-0.0304,-0.0302,-0.0165,-0.0164,0.0064,0.0065,0,0,0,0,0,0,0,0,0,0,0,-0.0355,-0.0355,-0.0304,-0.0301,-0.0165,-0.0164,0.0063,0.0065,0,0,0,0,0,0,0,0,0,0,0,-0.0355,-0.0355,-0.0355,-0.0301,-0.0165,-0.0164,0.0063,-0.0047,0,0,0,0,0,0,0,0,0,0,-0.0183,-0.0249,-0.0355,-0.0355,-0.03,-0.0166,-0.0164,-0.0052,-0.004,0.0009,0,0.0008,0,0.0034,0.0079,0.008,0,0,0,-0.0274,-0.0259,-0.0226,-0.0355,-0.03,-0.0166,-0.0219,-0.0046,-0.0031,0.0025,0.0011,0.002,0.0037,0.0081,0.0082,0.0211,0.021,0,0,-0.0282,-0.0316,-0.0237,-0.0219,-0.0291,-0.0223,-0.0215,-0.0037,-0.0031,0.0012,0.0025,0.0041,0.0082,0.0084,0.0211,0.0211,0,0,0,-0.0322,-0.0322,-0.0293,-0.0228,-0.0212,-0.022,-0.021,-0.0038,-0.0031,0.0027,0.0044,0.0083,0.0086,0.0211,0.0211,0.01,0,0,0,-0.0325,-0.0347,-0.0298,-0.0314,-0.0217,-0.0131,-0.0215,-0.0043,-0.0022,0.0043,0.0083,0.0088,0.0211,0.0211,0.0103,0.0059,0,0,0,-0.0356,-0.0349,-0.0344,-0.0317,-0.027,-0.0134,-0.0114,-0.0038,-0.0013,0.008,0.0088,0.0211,0.0211,0.0106,0.0064,0.0111,0,0,0,-0.0381,-0.0407,-0.0345,-0.0359,-0.0272,-0.0214,-0.0115,-0.0049,0.002,0.0084,0.0211,0.0211,0.0107,0.0068,0.0113,0.0232,0.0233,0,0,-0.0434,-0.0414,-0.0422,-0.0363,-0.0348,-0.0229,-0.0185,-0.0054,0.0036,0.0162,0.0165,0.0102,0.0064,0.0111,0.0212,0.0213,0,0,0,-0.045,-0.0461,-0.0443,-0.0415,-0.0345,-0.0276,-0.0143,-0.0072,0.0038,0.0071,0.0126,0.0107,0.014,0.0217,0.0217,0.051,0.0209,0.0209,0.0209,-0.0575,-0.0527,-0.0539,-0.0475,-0.0426,-0.0293,-0.0223,-0.0098,-0.0008,0.002,0.0033,0.0015,0.0093,0.0096,0.0394,0.0052,0.0052,0.0052,0.0051,-0.067,-0.0681,-0.0611,-0.0606,-0.0515,-0.0459,-0.0287,-0.0209,-0.0073,-0.0028,0.001,0.0115,0.0091,0.0409,0.0045,0.0046,0.0047,0.0047,0.0048,-0.0758,-0.0758,-0.0741,-0.0724,-0.0682,-0.0562,-0.0474,-0.0344,-0.0175,-0.0145,0.003,0.0034,0.0307,-0.0102,-0.0103,-0.0103,-0.0103,-0.0103,-0.0103,-0.086,-0.084,-0.0874,-0.0843,-0.0836,-0.0774,-0.0582,-0.0454,-0.0211,-0.0061,-0.0058,0.0353,-0.003,-0.0032,-0.0103,-0.0103,-0.0103,-0.0103,-0.0103,-0.0961,-0.0952,-0.1012,-0.1022,-0.0993,-0.0899,-0.0733,-0.0378,-0.0217,-0.0054,0.0443,0.0026,0.0095,0.0097,0.01,0.0069,0.0069,0.0069,0.0069,-0.1035,-0.1034,-0.1115,-0.1147,-0.1133,-0.0961,-0.0652,-0.0261,0.03,0.0617,0.0676,0.0758,0.0738,0.085,0.0835,0.0856,0.1017,0.1018,0.102,-0.1097,-0.1121,-0.1187,-0.1207,-0.1187,-0.0979,-0.0588,0.0011,0.0799,0.1085,0.106,0.102,0.1162,0.1108,0.1298,0.1254,0.1293,0,0]}],[{"header":{"parameterUnit":"m.s-1","parameterCategory":2,"la1":30.2992,"la2":30.254,"lo1":-89.0895,"lo2":-89.0443,"dy":0.0025,"dx":0.0025,"nx":19,"ny":19,"refTime":"2026-04-20T21:00:00:Z","depth":"2","parameterNumber":2,"parameterNumberName":"U-component_of_CURRENTS"},"data":[0,0,0,-0.2715,-0.2717,-0.2806,-0.2807,-0.2775,-0.2775,0,0,0,0,0,0,0,0,0,0,0,-0.2675,-0.2676,-0.2715,-0.2718,-0.2806,-0.2807,-0.2775,-0.2775,0,0,0,0,0,0,0,0,0,0,0,-0.2675,-0.2676,-0.2677,-0.2718,-0.2806,-0.2807,-0.2775,-0.2741,0,0,0,0,0,0,0,0,0,0,-0.2671,-0.2643,-0.2676,-0.2677,-0.2719,-0.2806,-0.2807,-0.2741,-0.2743,-0.2698,0,-0.2721,0,-0.2754,-0.277,-0.277,0,0,0,-0.2704,-0.2641,-0.2687,-0.2677,-0.272,-0.2806,-0.2762,-0.2743,-0.2745,-0.27,-0.2722,-0.2722,-0.2754,-0.277,-0.277,-0.273,-0.273,0,0,-0.2699,-0.2665,-0.2686,-0.2689,-0.2752,-0.276,-0.2765,-0.2746,-0.2735,-0.2722,-0.2722,-0.2753,-0.277,-0.2769,-0.273,-0.273,0,0,0,-0.2694,-0.2661,-0.271,-0.2689,-0.2721,-0.2763,-0.2769,-0.2736,-0.2759,-0.2722,-0.2753,-0.2769,-0.2768,-0.273,-0.273,-0.2766,0,0,0,-0.269,-0.266,-0.2707,-0.2684,-0.2723,-0.2746,-0.2759,-0.276,-0.276,-0.2753,-0.2769,-0.2768,-0.273,-0.273,-0.2765,-0.2775,0,0,0,-0.267,-0.2657,-0.2677,-0.2683,-0.2732,-0.2748,-0.2769,-0.2762,-0.2778,-0.277,-0.2768,-0.273,-0.273,-0.2764,-0.2773,-0.2773,0,0,0,-0.2619,-0.2642,-0.2675,-0.2701,-0.2732,-0.2777,-0.277,-0.2783,-0.2777,-0.2769,-0.273,-0.273,-0.2763,-0.2772,-0.2772,-0.2596,-0.2585,0,0,-0.2622,-0.2641,-0.2658,-0.2692,-0.2734,-0.2763,-0.2789,-0.2779,-0.2761,-0.2723,-0.2724,-0.2765,-0.2773,-0.2773,-0.26,-0.2589,0,0,0,-0.2642,-0.2649,-0.2668,-0.2701,-0.2747,-0.2783,-0.2789,-0.2793,-0.2783,-0.2763,-0.2756,-0.276,-0.2759,-0.265,-0.2642,-0.2731,-0.2731,-0.2731,-0.2731,-0.257,-0.262,-0.264,-0.27,-0.2733,-0.2784,-0.2805,-0.2807,-0.2786,-0.2791,-0.2783,-0.2798,-0.2683,-0.2674,-0.2778,-0.2779,-0.2779,-0.2779,-0.2779,-0.2546,-0.2547,-0.2619,-0.2657,-0.2719,-0.2744,-0.2809,-0.2818,-0.2826,-0.2813,-0.281,-0.2685,-0.2667,-0.2782,-0.2781,-0.2781,-0.278,-0.278,-0.278,-0.2459,-0.247,-0.2515,-0.258,-0.2642,-0.2723,-0.2767,-0.2819,-0.2839,-0.285,-0.2709,-0.2705,-0.2816,-0.2843,-0.2843,-0.2843,-0.2843,-0.2843,-0.2843,-0.2341,-0.2395,-0.2405,-0.2505,-0.2538,-0.2621,-0.2738,-0.2759,-0.2745,-0.2723,-0.2721,-0.2819,-0.2817,-0.2819,-0.2844,-0.2844,-0.2844,-0.2844,-0.2844,-0.2194,-0.2247,-0.2255,-0.2288,-0.2393,-0.2392,-0.2573,-0.257,-0.2613,-0.256,-0.2639,-0.2644,-0.2611,-0.2614,-0.261,-0.258,-0.258,-0.258,-0.258,-0.2072,-0.2113,-0.2094,-0.2121,-0.2187,-0.2272,-0.2169,-0.216,-0.2256,-0.2247,-0.2262,-0.2197,-0.2215,-0.2157,-0.2171,-0.2157,-0.2009,-0.2008,-0.2007,-0.1948,-0.1988,-0.1917,-0.2,-0.2074,-0.2083,-0.1873,-0.1654,-0.1709,-0.1987,-0.2181,-0.2538,-0.2481,-0.2494,-0.2435,-0.2447,-0.2436,0,0]},{"header":{"parameterUnit":"m.s-1","parameterCategory":2,"la1":30.2992,"la2":30.254,"lo1":-89.0895,"lo2":-89.0443,"dy":0.0025,"dx":0.0025,"nx":19,"ny":19,"refTime":"2026-04-20T21:00:00:Z","depth":"2","parameterNumber":3,"parameterNumberName":"V-component_of_CURRENTS"},"data":[0,0,0,-0.0345,-0.0343,-0.0211,-0.021,0.0016,0.0018,0,0,0,0,0,0,0,0,0,0,0,-0.0395,-0.0395,-0.0345,-0.0343,-0.0211,-0.021,0.0016,0.0018,0,0,0,0,0,0,0,0,0,0,0,-0.0395,-0.0395,-0.0395,-0.0343,-0.0211,-0.021,0.0016,-0.0092,0,0,0,0,0,0,0,0,0,0,-0.0225,-0.0289,-0.0395,-0.0395,-0.0342,-0.0212,-0.021,-0.0097,-0.0085,-0.0036,0,-0.0037,0,-0.0012,0.0032,0.0033,0,0,0,-0.0316,-0.03,-0.0268,-0.0394,-0.0341,-0.0212,-0.0263,-0.0091,-0.0077,-0.0019,-0.0033,-0.0025,-0.0008,0.0034,0.0035,0.017,0.017,0,0,-0.0323,-0.0357,-0.0278,-0.026,-0.0333,-0.0268,-0.0259,-0.0083,-0.0076,-0.0032,-0.002,-0.0005,0.0035,0.0037,0.017,0.017,0,0,0,-0.0363,-0.0363,-0.0335,-0.0269,-0.0255,-0.0264,-0.0255,-0.0083,-0.0076,-0.0017,-0.0002,0.0036,0.0039,0.017,0.017,0.0061,0,0,0,-0.0366,-0.0387,-0.0339,-0.0355,-0.0259,-0.0176,-0.026,-0.0089,-0.0068,-0.0003,0.0036,0.0041,0.017,0.017,0.0064,0.0018,0,0,0,-0.0396,-0.039,-0.0384,-0.0358,-0.0313,-0.0178,-0.0159,-0.0083,-0.0059,0.0033,0.0041,0.017,0.017,0.0067,0.0024,0.0064,0,0,0,-0.042,-0.0445,-0.0385,-0.0398,-0.0315,-0.0255,-0.016,-0.0094,-0.0025,0.0037,0.017,0.017,0.0068,0.0027,0.0066,0.0166,0.0165,0,0,-0.047,-0.0452,-0.0458,-0.0402,-0.0384,-0.0269,-0.0223,-0.0095,-0.0006,0.0122,0.0125,0.0063,0.0024,0.0064,0.0155,0.0154,0,0,0,-0.0486,-0.0495,-0.0477,-0.0449,-0.0379,-0.031,-0.018,-0.011,0.0001,0.003,0.009,0.007,0.0098,0.0164,0.0163,0.0169,0.0169,0.0169,0.0169,-0.0606,-0.0558,-0.0568,-0.0503,-0.0454,-0.0323,-0.0253,-0.013,-0.0041,-0.0012,-0.0,-0.002,0.0047,0.0049,0.0023,0.0023,0.0022,0.0022,0.0022,-0.0698,-0.0708,-0.0636,-0.063,-0.0539,-0.0481,-0.0312,-0.0236,-0.0104,-0.0058,-0.0024,0.0068,0.0042,0.0014,0.0015,0.0016,0.0017,0.0018,0.0018,-0.0784,-0.0784,-0.0765,-0.0746,-0.0702,-0.0583,-0.05,-0.037,-0.0206,-0.0178,-0.0021,-0.0017,-0.0066,-0.0139,-0.0139,-0.0139,-0.0139,-0.0139,-0.0139,-0.0886,-0.0864,-0.0897,-0.0863,-0.0856,-0.0795,-0.0609,-0.0487,-0.0258,-0.0114,-0.0111,-0.0072,-0.0066,-0.0072,-0.014,-0.014,-0.014,-0.014,-0.014,-0.0986,-0.0977,-0.1035,-0.1045,-0.1015,-0.0942,-0.0768,-0.0436,-0.0281,-0.0129,-0.0037,-0.0039,0.0025,0.0029,0.0028,-0.001,-0.001,-0.001,-0.001,-0.1062,-0.106,-0.114,-0.1172,-0.116,-0.1011,-0.077,-0.0444,-0.0127,0.0009,0.0008,0.0033,0.0029,0.0095,0.0097,0.0099,0.0078,0.0078,0.0078,-0.1125,-0.1147,-0.1214,-0.1234,-0.1217,-0.105,-0.0782,-0.0375,0.002,0.0073,-0.006,0.0012,0.0048,0.0042,0.0147,0.0148,0.0153,0,0]}],[{"header":{"parameterUnit":"m.s-1","parameterCategory":2,"la1":30.2992,"la2":30.254,"lo1":-89.0895,"lo2":-89.0443,"dy":0.0025,"dx":0.0025,"nx":19,"ny":19,"refTime":"2026-04-20T21:00:00:Z","depth":"4","parameterNumber":2,"parameterNumberName":"U-component_of_CURRENTS"},"data":[0,0,0,-0.1958,-0.1962,-0.2139,-0.214,-0.2223,-0.2223,0,0,0,0,0,0,0,0,0,0,0,-0.19,-0.1902,-0.1958,-0.1962,-0.2139,-0.214,-0.2223,-0.2223,0,0,0,0,0,0,0,0,0,0,0,-0.1899,-0.1901,-0.1903,-0.1963,-0.2139,-0.214,-0.2223,-0.2124,0,0,0,0,0,0,0,0,0,0,-0.1969,-0.1938,-0.1901,-0.1903,-0.1964,-0.2139,-0.214,-0.2121,-0.213,-0.2103,0,-0.2146,0,-0.2184,-0.2226,-0.2226,0,0,0,-0.1958,-0.193,-0.1979,-0.1903,-0.1966,-0.2139,-0.2058,-0.2127,-0.2137,-0.2115,-0.2148,-0.2152,-0.2186,-0.2226,-0.2227,-0.228,-0.228,0,0,-0.1949,-0.1926,-0.1972,-0.1986,-0.2029,-0.2053,-0.2064,-0.2135,-0.2148,-0.2148,-0.2154,-0.2187,-0.2227,-0.2227,-0.228,-0.228,0,0,0,-0.1923,-0.1919,-0.1969,-0.1981,-0.2024,-0.2058,-0.2071,-0.2145,-0.2164,-0.2156,-0.2188,-0.2227,-0.2227,-0.228,-0.228,-0.2318,0,0,0,-0.1917,-0.1905,-0.1964,-0.1952,-0.2024,-0.2107,-0.2079,-0.2159,-0.2169,-0.2188,-0.2227,-0.2228,-0.2279,-0.228,-0.2316,-0.2319,0,0,0,-0.1889,-0.1901,-0.1928,-0.195,-0.2029,-0.2107,-0.213,-0.2163,-0.2187,-0.2226,-0.2228,-0.2279,-0.228,-0.2315,-0.2317,-0.2312,0,0,0,-0.1849,-0.1885,-0.1928,-0.1979,-0.2028,-0.2118,-0.2131,-0.2206,-0.2244,-0.2227,-0.2279,-0.228,-0.2314,-0.2316,-0.2311,-0.2011,0,0,0,-0.1862,-0.1886,-0.1914,-0.1957,-0.2034,-0.2092,-0.2171,-0.2231,-0.2238,-0.2244,-0.2247,-0.2317,-0.2317,-0.2312,-0.2054,0,0,0,0,-0.1897,-0.1919,-0.195,-0.2014,-0.2086,-0.2163,-0.223,-0.2257,-0.2306,-0.2267,-0.232,-0.2318,-0.2314,-0.2137,-0.2283,-0.2283,-0.2283,-0.2283,-0.2283,-0.186,-0.1913,-0.1965,-0.2042,-0.2108,-0.2215,-0.2268,-0.2313,-0.2322,-0.2354,-0.2353,-0.2378,-0.2193,-0.2363,-0.2363,-0.2363,-0.2363,-0.2363,-0.2363,-0.1853,-0.1869,-0.1968,-0.2039,-0.2136,-0.2214,-0.2311,-0.2345,-0.2388,-0.2393,-0.2387,-0.2193,-0.2367,-0.2366,-0.2366,-0.2365,-0.2365,-0.2365,-0.2365,-0.1785,-0.1801,-0.1881,-0.1993,-0.2105,-0.2222,-0.2274,-0.2362,-0.2406,-0.2421,-0.2213,-0.2392,-0.2383,-0.2422,-0.2422,-0.2422,-0.2422,-0.2422,-0.2422,-0.1668,-0.1748,-0.1801,-0.1944,-0.2013,-0.2119,-0.2261,-0.2271,-0.2346,-0.221,-0.2429,-0.2396,-0.2395,-0.2386,-0.2422,-0.2422,-0.2422,-0.2422,-0.2422,-0.1543,-0.1614,-0.1663,-0.1735,-0.1879,-0.1933,-0.2118,-0.2075,-0.2063,-0.1982,-0.2083,-0.21,-0.205,-0.2056,-0.2034,-0.1967,-0.1963,-0.196,0,-0.1442,-0.1488,-0.1529,-0.1584,-0.163,-0.18,-0.1714,-0.1767,-0.1818,-0.1761,-0.2063,-0.218,-0.2189,-0.2138,-0.2137,-0.2111,0,0,0,-0.1352,-0.1389,-0.1364,-0.146,-0.15,-0.1538,-0.1674,-0.1605,-0.1837,-0.1713,-0.1865,-0.189,-0.221,-0.2422,-0.2385,-0.2383,-0.2366,0,0]},{"header":{"parameterUnit":"m.s-1","parameterCategory":2,"la1":30.2992,"la2":30.254,"lo1":-89.0895,"lo2":-89.0443,"dy":0.0025,"dx":0.0025,"nx":19,"ny":19,"refTime":"2026-04-20T21:00:00:Z","depth":"4","parameterNumber":3,"parameterNumberName":"V-component_of_CURRENTS"},"data":[0,0,0,-0.029,-0.0289,-0.0206,-0.0206,-0.0009,-0.0007,0,0,0,0,0,0,0,0,0,0,0,-0.0321,-0.0321,-0.0291,-0.0289,-0.0206,-0.0206,-0.0009,-0.0007,0,0,0,0,0,0,0,0,0,0,0,-0.0321,-0.0321,-0.0321,-0.0289,-0.0207,-0.0206,-0.0009,-0.0089,0,0,0,0,0,0,0,0,0,0,-0.0178,-0.0232,-0.0321,-0.0321,-0.0289,-0.0207,-0.0206,-0.0093,-0.0084,-0.0028,0,-0.0035,0,-0.0024,0.0006,0.0007,0,0,0,-0.0265,-0.024,-0.0218,-0.0321,-0.0289,-0.0207,-0.0237,-0.0088,-0.0077,-0.0015,-0.0032,-0.0026,-0.0021,0.0007,0.0008,0.0156,0.0157,0,0,-0.0269,-0.0295,-0.0226,-0.0212,-0.029,-0.024,-0.0235,-0.0083,-0.0079,-0.0032,-0.0021,-0.0018,0.0009,0.001,0.0156,0.0156,0,0,0,-0.0299,-0.0299,-0.0281,-0.022,-0.0216,-0.0238,-0.0232,-0.0085,-0.0081,-0.0019,-0.0015,0.001,0.0012,0.0156,0.0156,0.0061,0,0,0,-0.0301,-0.0318,-0.0284,-0.0297,-0.0221,-0.0164,-0.0238,-0.0091,-0.0074,-0.0016,0.001,0.0014,0.0156,0.0156,0.0063,0.0014,0,0,0,-0.032,-0.0319,-0.0318,-0.0299,-0.0274,-0.0166,-0.0152,-0.0087,-0.0072,0.0007,0.0015,0.0156,0.0156,0.0065,0.0019,0.0032,0,0,0,-0.0336,-0.0355,-0.0319,-0.0329,-0.0275,-0.0224,-0.0153,-0.0098,-0.0038,0.0011,0.0156,0.0156,0.0065,0.0021,0.0034,-0.0002,0,0,0,-0.037,-0.036,-0.0364,-0.033,-0.0311,-0.0232,-0.0187,-0.0084,-0.0008,0.0117,0.012,0.0062,0.0019,0.0032,0.0023,0,0,0,0,-0.038,-0.0387,-0.0373,-0.0354,-0.03,-0.025,-0.0145,-0.0089,0.0009,0.0025,0.0097,0.0074,0.0085,0.0072,0.0158,0.0158,0.0158,0.0158,0.0158,-0.0465,-0.0428,-0.0433,-0.0383,-0.0344,-0.0245,-0.0192,-0.0089,-0.0011,0.0016,0.0022,0.0,-0.0016,0.0058,0.0057,0.0057,0.0056,0.0056,0.0056,-0.0523,-0.0529,-0.0479,-0.0474,-0.0409,-0.0362,-0.0226,-0.0169,-0.0066,-0.0018,-0.0002,0.0003,0.0047,0.0049,0.005,0.0051,0.0052,0.0052,0.0053,-0.0583,-0.0581,-0.0577,-0.0567,-0.054,-0.0449,-0.0399,-0.0289,-0.016,-0.0144,-0.0103,-0.0042,-0.0062,-0.0122,-0.0122,-0.0122,-0.0123,-0.0123,-0.0123,-0.0652,-0.0641,-0.0678,-0.0661,-0.0668,-0.0633,-0.0503,-0.0422,-0.0285,-0.0207,-0.0161,-0.0059,-0.0053,-0.0068,-0.0125,-0.0125,-0.0125,-0.0124,-0.0124,-0.0715,-0.0722,-0.0778,-0.0802,-0.0804,-0.0765,-0.0657,-0.0474,-0.0391,-0.0296,-0.0212,-0.0207,-0.0166,-0.0156,-0.0174,-0.0265,-0.0266,-0.0267,0,-0.0769,-0.0772,-0.0857,-0.0904,-0.0912,-0.0834,-0.072,-0.0594,-0.0417,-0.0421,-0.0395,-0.031,-0.0302,-0.0264,-0.0256,-0.0283,0,0,0,-0.0811,-0.0834,-0.0903,-0.0944,-0.0952,-0.0792,-0.0683,-0.0618,-0.045,-0.0357,-0.0284,-0.0279,-0.0231,-0.0133,-0.0056,-0.0049,-0.0069,0,0]}]]